Trinity Center, CA

8:34 AM PDT on August 19, 2017 (GMT -0700)
Trinity Center

Weather History for KO86 - October, 2013

Change the Weather History Date:

Friday, October 4, 2013

  Actual Average (KMHS) Record (KMHS)
Temperature  
Mean Temperature 53 °F -  
Max Temperature 71 °F 69 °F 90 °F (1958)
Min Temperature 35 °F 39 °F 21 °F (1916)
Degree Days  
Heating Degree Days 12    
Growing Degree Days 3 (Base 50)    
Moisture  
Dew Point 28 °F    
Average Humidity 53    
Maximum Humidity 87    
Minimum Humidity 11    
Precipitation  
Precipitation 0.00 in - - ()
Sea Level Pressure  
Sea Level Pressure 30.31 in    
Wind  
Wind Speed 3 mph (West)    
Max Wind Speed 9 mph    
Max Gust Speed -    
Visibility 10 miles    
Events      
Averages and records for this station are not official NWS values.
T = Trace of Precipitation, MM = Missing Value Source: NWS Daily Summary

Daily Weather History Graph

Daily Weather History Graph

Search for Another Location

Airport or City:

Trip Planner

Search our weather history database for the weather conditions in past years. The results will help you decide how hot, cold, wet, or windy it might be!

Date:

Astronomy

Oct. 04, 2013 Rise Set
Actual Time 7:10 AM PDT 6:47 PM PDT
Civil Twilight 6:43 AM PDT 7:14 PM PDT
Nautical Twilight 6:11 AM PDT 7:46 PM PDT
Astronomical Twilight 5:39 AM PDT 8:18 PM PDT
Moon 6:52 AM PDT (10/4) 6:32 PM PDT (10/4)
Length of Visible Light 12h 31m
Length of Day
11h 36m
Waning Crescent, 0% of the Moon is Illuminated
Oct 4
Waning Crescent
Oct 4
New
Oct 11
First Quarter
Oct 18
Full
Oct 26
Last Quarter

Hourly Weather History & Observations

Time (PDT) Temp. Windchill Dew Point Humidity Pressure Visibility Wind Dir Wind Speed Gust Speed Precip Events Conditions
12:10 AM 39.2 °F 37.0 °F 33.8 °F 81% 30.29 in 10.0 mi WSW 3.5 mph - N/A   Clear
12:30 AM 39.2 °F - 33.8 °F 81% 30.29 in 10.0 mi Calm Calm - N/A   Clear
12:50 AM 39.2 °F 34.2 °F 32.0 °F 75% 30.30 in 10.0 mi West 6.9 mph - N/A   Clear
1:10 AM 39.2 °F 35.9 °F 33.8 °F 81% 30.30 in 10.0 mi West 4.6 mph - N/A   Clear
1:30 AM 39.2 °F - 32.0 °F 75% 30.30 in 10.0 mi Calm Calm - N/A   Clear
1:50 AM 39.2 °F 37.0 °F 32.0 °F 75% 30.31 in 10.0 mi WNW 3.5 mph - N/A   Clear
2:10 AM 39.2 °F - 32.0 °F 75% 30.31 in 10.0 mi Calm Calm - N/A   Clear
2:30 AM 37.4 °F - 32.0 °F 81% 30.31 in 10.0 mi Calm Calm - N/A   Clear
2:50 AM 37.4 °F 34.9 °F 32.0 °F 81% 30.31 in 10.0 mi SW 3.5 mph - N/A   Clear
3:10 AM 37.4 °F - 32.0 °F 81% 30.30 in 10.0 mi Calm Calm - N/A   Clear
3:30 AM 37.4 °F 33.8 °F 32.0 °F 81% 30.30 in 10.0 mi West 4.6 mph - N/A   Clear
3:50 AM 35.6 °F - 32.0 °F 87% 30.30 in 10.0 mi Calm Calm - N/A   Clear
4:10 AM 35.6 °F 32.8 °F 32.0 °F 87% 30.31 in 10.0 mi WSW 3.5 mph - N/A   Clear
4:30 AM 35.6 °F 30.7 °F 32.0 °F 87% 30.31 in 10.0 mi West 5.8 mph - N/A   Clear
4:50 AM 35.6 °F 32.8 °F 32.0 °F 87% 30.31 in 10.0 mi West 3.5 mph - N/A   Clear
5:10 AM 35.6 °F 31.7 °F 32.0 °F 87% 30.31 in 10.0 mi West 4.6 mph - N/A   Clear
5:30 AM 35.6 °F 31.7 °F 32.0 °F 87% 30.31 in 10.0 mi WNW 4.6 mph - N/A   Clear
5:50 AM 35.6 °F 32.8 °F 32.0 °F 87% 30.32 in 10.0 mi West 3.5 mph - N/A   Clear
6:10 AM 35.6 °F - 32.0 °F 87% 30.33 in 10.0 mi Calm Calm - N/A   Clear
6:30 AM 35.6 °F 31.7 °F 32.0 °F 87% 30.33 in 10.0 mi WSW 4.6 mph - N/A   Clear
6:50 AM 35.6 °F 31.7 °F 32.0 °F 87% 30.33 in 10.0 mi WNW 4.6 mph - N/A   Clear
7:10 AM 35.6 °F 31.7 °F 32.0 °F 87% 30.34 in 10.0 mi West 4.6 mph - N/A   Clear
7:30 AM 35.6 °F 31.7 °F 32.0 °F 87% 30.34 in 10.0 mi West 4.6 mph - N/A   Clear
7:50 AM 35.6 °F - 32.0 °F 87% 30.35 in 10.0 mi Calm Calm - N/A   Clear
8:10 AM 39.2 °F - 32.0 °F 75% 30.36 in 10.0 mi Calm Calm - N/A   Clear
8:30 AM 41.0 °F - 33.8 °F 76% 30.36 in 10.0 mi Calm Calm - N/A   Clear
8:50 AM 44.6 °F - 32.0 °F 61% 30.36 in 10.0 mi Calm Calm - N/A   Clear
9:10 AM 44.6 °F 43.1 °F 35.6 °F 71% 30.37 in 10.0 mi ENE 3.5 mph - N/A   Clear
9:30 AM 46.4 °F - 33.8 °F 62% 30.37 in 10.0 mi Calm Calm - N/A   Clear
9:50 AM 48.2 °F - 32.0 °F 54% 30.37 in 10.0 mi Calm Calm - N/A   Clear
10:10 AM 50.0 °F - 32.0 °F 50% 30.37 in 10.0 mi Calm Calm - N/A   Clear
10:30 AM 51.8 °F - 32.0 °F 47% 30.36 in 10.0 mi Calm Calm - N/A   Clear
10:50 AM 55.4 °F - 32.0 °F 41% 30.35 in 10.0 mi Calm Calm - N/A   Clear
11:10 AM 57.2 °F - 32.0 °F 38% 30.35 in 10.0 mi Calm Calm - N/A   Clear
11:30 AM 59.0 °F - 28.4 °F 31% 30.35 in 10.0 mi Calm Calm - N/A   Clear
11:50 AM 62.6 °F - 26.6 °F 26% 30.34 in 10.0 mi Calm Calm - N/A   Clear
12:10 PM 64.4 °F - 19.4 °F 18% 30.33 in 10.0 mi Calm Calm - N/A   Clear
12:30 PM 64.4 °F - 17.6 °F 16% 30.32 in 10.0 mi NNE 3.5 mph - N/A   Clear
12:50 PM 64.4 °F - 19.4 °F 18% 30.31 in 10.0 mi WNW 4.6 mph - N/A   Clear
1:10 PM 66.2 °F - 17.6 °F 15% 30.30 in 10.0 mi SW 4.6 mph - N/A   Clear
1:30 PM 66.2 °F - 15.8 °F 14% 30.29 in 10.0 mi Calm Calm - N/A   Clear
1:50 PM 68.0 °F - 14.0 °F 12% 30.28 in 10.0 mi West 3.5 mph - N/A   Clear
2:10 PM 68.0 °F - 15.8 °F 13% 30.28 in 10.0 mi South 6.9 mph - N/A   Clear
2:30 PM 68.0 °F - 14.0 °F 12% 30.27 in 10.0 mi SW 3.5 mph - N/A   Clear
2:50 PM 71.6 °F - 14.0 °F 11% 30.27 in 10.0 mi SSW 3.5 mph - N/A   Clear
3:10 PM 69.8 °F - 14.0 °F 12% 30.27 in 10.0 mi SSE 4.6 mph - N/A   Clear
3:30 PM 71.6 °F - 19.4 °F 14% 30.27 in 10.0 mi ESE 4.6 mph - N/A   Clear
3:50 PM 71.6 °F - 17.6 °F 13% 30.27 in 10.0 mi East 5.8 mph - N/A   Clear
4:10 PM 71.6 °F - 17.6 °F 13% 30.26 in 10.0 mi East 4.6 mph - N/A   Clear
4:30 PM 71.6 °F - 19.4 °F 14% 30.26 in 10.0 mi ESE 6.9 mph - N/A   Clear
4:50 PM 71.6 °F - 19.4 °F 14% 30.25 in 10.0 mi East 4.6 mph - N/A   Clear
5:10 PM 71.6 °F - 19.4 °F 14% 30.25 in 10.0 mi East 4.6 mph - N/A   Clear
5:30 PM 69.8 °F - 23.0 °F 17% 30.25 in 10.0 mi ESE 4.6 mph - N/A   Clear
5:50 PM 69.8 °F - 23.0 °F 17% 30.25 in 10.0 mi Calm Calm - N/A   Clear
6:10 PM 64.4 °F - 28.4 °F 26% 30.26 in 10.0 mi West 8.1 mph - N/A   Clear
6:30 PM 60.8 °F - 28.4 °F 29% 30.26 in 10.0 mi West 9.2 mph - N/A   Clear
6:50 PM 59.0 °F - 30.2 °F 34% 30.27 in 10.0 mi West 8.1 mph - N/A   Clear
7:10 PM 57.2 °F - 28.4 °F 33% 30.28 in 10.0 mi West 6.9 mph - N/A   Clear
7:30 PM 55.4 °F - 28.4 °F 36% 30.29 in 10.0 mi West 5.8 mph - N/A   Clear
7:50 PM 53.6 °F - 30.2 °F 41% 30.29 in 10.0 mi West 4.6 mph - N/A   Clear
8:10 PM 51.8 °F - 28.4 °F 41% 30.30 in 10.0 mi West 8.1 mph - N/A   Clear
8:30 PM 50.0 °F - 30.2 °F 47% 30.30 in 10.0 mi West 4.6 mph - N/A   Clear
8:50 PM 48.2 °F - 32.0 °F 54% 30.31 in 10.0 mi West 3.5 mph - N/A   Clear
9:10 PM 46.4 °F 43.5 °F 32.0 °F 57% 30.31 in 10.0 mi West 5.8 mph - N/A   Clear
9:30 PM 46.4 °F - 32.0 °F 57% 30.32 in 10.0 mi Calm Calm - N/A   Clear
9:50 PM 44.6 °F - 32.0 °F 61% 30.32 in 10.0 mi Calm Calm - N/A   Clear
10:10 PM 44.6 °F 43.1 °F 32.0 °F 61% 30.32 in 10.0 mi WSW 3.5 mph - N/A   Clear
10:30 PM 42.8 °F 40.1 °F 32.0 °F 66% 30.32 in 9.0 mi West 4.6 mph - N/A   Clear
10:50 PM 42.8 °F 39.3 °F 32.0 °F 66% 30.33 in 10.0 mi West 5.8 mph - N/A   Clear
11:10 PM 42.8 °F 41.1 °F 32.0 °F 66% 30.33 in 10.0 mi West 3.5 mph - N/A   Clear
11:30 PM 41.0 °F 39.0 °F 32.0 °F 70% 30.33 in 10.0 mi West 3.5 mph - N/A   Clear
11:50 PM 41.0 °F 38.0 °F 32.0 °F 70% 30.33 in 10.0 mi West 4.6 mph - N/A   Clear